QPF
0.06 0.08 0.13 0.12 0.10 0.09 0.08 0.08 0.08 0.08 0.07 0.06 0.07 0.07 0.07 0.08 0.10 0.10 0.10 0.14 0.16 0.17 0.17 0.16 0.14 0.13 0.10 0.09 0.09 0.08 0.06 0.07 0.07 0.07 0.06 0.05 0.06 0.05 0.07 0.09 0.07 0.04 0.05
0.03 0.05 0.10 0.09 0.08 0.08 0.07 0.07 0.06 0.05 0.05 0.05 0.05 0.06 0.08 0.10 0.08 0.09 0.13 0.14 0.13 0.20 0.21 0.15 0.15 0.12 0.10 0.09 0.08 0.08 0.08 0.07 0.06 0.10 0.09 0.07 0.08 0.06 0.05 0.07 0.09 0.06 0.05
0.02 0.03 0.04 0.06 0.06 0.06 0.07 0.06 0.05 0.04 0.05 0.06 0.07 0.08 0.10 0.09 0.09 0.09 0.10 0.08 0.10 0.18 0.17 0.12 0.12 0.10 0.09 0.08 0.08 0.08 0.09 0.09 0.09 0.10 0.08 0.08 0.07 0.06 0.05 0.05 0.07 0.07 0.07
0.01 0.02 0.02 0.04 0.05 0.06 0.07 0.05 0.04 0.05 0.05 0.06 0.07 0.08 0.08 0.09 0.08 0.08 0.07 0.07 0.08 0.11 0.11 0.10 0.09 0.09 0.08 0.07 0.09 0.11 0.10 0.08 0.08 0.08 0.07 0.07 0.06 0.05 0.05 0.06 0.09 0.10 0.09
0.01 0.01 0.02 0.05 0.04 0.04 0.07 0.06 0.05 0.05 0.06 0.06 0.06 0.07 0.08 0.08 0.09 0.10 0.09 0.08 0.08 0.08 0.09 0.09 0.09 0.09 0.08 0.07 0.10 0.10 0.08 0.07 0.07 0.07 0.06 0.07 0.08 0.08 0.08 0.11 0.13 0.13 0.10
0.01 0.01 0.02 0.05 0.05 0.05 0.07 0.07 0.05 0.04 0.06 0.05 0.05 0.07 0.07 0.08 0.12 0.11 0.10 0.09 0.09 0.09 0.09 0.10 0.11 0.11 0.09 0.09 0.08 0.08 0.07 0.05 0.04 0.04 0.04 0.07 0.09 0.10 0.12 0.16 0.19 0.14 0.07
0.01 0.01 0.02 0.06 0.06 0.07 0.06 0.05 0.05 0.05 0.05 0.05 0.05 0.05 0.06 0.07 0.09 0.08 0.06 0.07 0.07 0.08 0.09 0.12 0.11 0.11 0.10 0.08 0.07 0.08 0.06 0.03 0.02 0.03 0.04 0.08 0.10 0.09 0.10 0.13 0.16 0.10 0.05
0.02 0.01 0.02 0.05 0.07 0.07 0.08 0.08 0.07 0.05 0.04 0.05 0.07 0.06 0.05 0.06 0.07 0.06 0.05 0.06 0.06 0.07 0.08 0.10 0.11 0.11 0.10 0.07 0.06 0.08 0.07 0.03 0.02 0.03 0.04 0.08 0.09 0.08 0.09 0.10 0.10 0.05 0.04
0.02 0.02 0.03 0.03 0.04 0.05 0.07 0.08 0.07 0.04 0.03 0.04 0.06 0.07 0.05 0.06 0.06 0.05 0.07 0.07 0.08 0.09 0.08 0.08 0.09 0.09 0.07 0.05 0.06 0.06 0.07 0.04 0.02 0.03 0.04 0.06 0.07 0.08 0.08 0.08 0.05 0.04 0.04
0.03 0.04 0.04 0.02 0.03 0.04 0.05 0.08 0.07 0.07 0.05 0.06 0.07 0.07 0.06 0.07 0.09 0.11 0.10 0.10 0.09 0.09 0.07 0.08 0.10 0.08 0.07 0.07 0.07 0.07 0.07 0.06 0.03 0.03 0.04 0.04 0.06 0.07 0.07 0.07 0.05 0.05 0.04
0.03 0.03 0.04 0.03 0.03 0.03 0.05 0.05 0.08 0.06 0.06 0.06 0.07 0.08 0.09 0.10 0.10 0.09 0.07 0.09 0.08 0.06 0.06 0.08 0.10 0.09 0.07 0.08 0.07 0.06 0.07 0.06 0.04 0.04 0.04 0.05 0.05 0.06 0.07 0.09 0.07 0.06 0.04
0.03 0.02 0.02 0.02 0.03 0.03 0.04 0.07 0.08 0.07 0.08 0.06 0.06 0.07 0.10 0.09 0.06 0.06 0.05 0.08 0.09 0.07 0.07 0.08 0.09 0.09 0.08 0.06 0.05 0.06 0.06 0.06 0.05 0.04 0.04 0.04 0.04 0.06 0.07 0.09 0.06 0.05 0.04
0.03 0.03 0.02 0.02 0.03 0.03 0.05 0.06 0.08 0.09 0.10 0.06 0.04 0.04 0.05 0.04 0.03 0.04 0.05 0.07 0.08 0.07 0.08 0.07 0.06 0.06 0.05 0.04 0.04 0.04 0.05 0.05 0.06 0.04 0.03 0.03 0.04 0.05 0.06 0.08 0.06 0.04 0.04
0.02 0.03 0.02 0.03 0.05 0.05 0.06 0.05 0.06 0.07 0.08 0.06 0.04 0.03 0.02 0.03 0.03 0.03 0.05 0.06 0.05 0.06 0.06 0.06 0.05 0.04 0.03 0.02 0.02 0.04 0.05 0.05 0.05 0.04 0.05 0.03 0.04 0.04 0.05 0.05 0.04 0.04 0.04
0.02 0.02 0.02 0.05 0.06 0.05 0.07 0.06 0.04 0.06 0.06 0.05 0.04 0.04 0.04 0.03 0.04 0.04 0.04 0.03 0.03 0.03 0.05 0.06 0.05 0.04 0.04 0.03 0.03 0.03 0.05 0.05 0.04 0.04 0.06 0.05 0.05 0.04 0.04 0.04 0.04 0.05 0.04
0.03 0.04 0.04 0.04 0.05 0.06 0.07 0.06 0.04 0.04 0.05 0.04 0.03 0.04 0.05 0.05 0.06 0.06 0.04 0.04 0.02 0.03 0.03 0.04 0.04 0.05 0.05 0.05 0.04 0.03 0.03 0.03 0.03 0.06 0.07 0.06 0.06 0.04 0.03 0.03 0.04 0.06 0.05
0.05 0.04 0.04 0.04 0.04 0.05 0.06 0.03 0.02 0.03 0.04 0.04 0.04 0.05 0.05 0.06 0.06 0.05 0.05 0.04 0.03 0.03 0.03 0.04 0.03 0.05 0.06 0.05 0.04 0.04 0.05 0.04 0.05 0.09 0.07 0.08 0.06 0.03 0.03 0.04 0.05 0.06 0.05
0.06 0.05 0.04 0.03 0.03 0.05 0.06 0.04 0.03 0.04 0.04 0.04 0.04 0.04 0.04 0.05 0.04 0.05 0.05 0.06 0.05 0.05 0.04 0.05 0.05 0.05 0.06 0.05 0.04 0.04 0.04 0.04 0.03 0.04 0.04 0.05 0.04 0.02 0.03 0.03 0.04 0.06 0.06
0.05 0.05 0.04 0.03 0.04 0.05 0.06 0.05 0.06 0.05 0.05 0.06 0.06 0.05 0.05 0.05 0.03 0.05 0.06 0.07 0.05 0.05 0.05 0.04 0.04 0.05 0.06 0.06 0.05 0.06 0.04 0.03 0.03 0.02 0.03 0.03 0.04 0.04 0.04 0.03 0.02 0.04 0.05
0.02 0.03 0.04 0.04 0.05 0.07 0.08 0.07 0.07 0.07 0.07 0.06 0.07 0.06 0.07 0.07 0.05 0.07 0.07 0.07 0.06 0.07 0.08 0.08 0.09 0.08 0.07 0.07 0.03 0.04 0.04 0.03 0.03 0.03 0.02 0.02 0.04 0.03 0.03 0.04 0.05 0.05 0.04
0.03 0.02 0.03 0.04 0.04 0.04 0.08 0.10 0.12 0.12 0.09 0.07 0.05 0.04 0.07 0.08 0.09 0.10 0.06 0.09 0.08 0.09 0.09 0.08 0.08 0.09 0.09 0.11 0.08 0.05 0.03 0.02 0.02 0.03 0.03 0.03 0.04 0.04 0.04 0.05 0.06 0.07 0.06
0.05 0.02 0.03 0.04 0.04 0.04 0.06 0.06 0.06 0.07 0.07 0.07 0.05 0.06 0.07 0.09 0.11 0.08 0.08 0.07 0.06 0.08 0.08 0.09 0.10 0.08 0.07 0.10 0.10 0.09 0.07 0.06 0.04 0.03 0.04 0.05 0.05 0.05 0.04 0.03 0.04 0.07 0.08
0.04 0.01 0.01 0.03 0.03 0.02 0.04 0.03 0.03 0.04 0.03 0.04 0.06 0.08 0.07 0.07 0.08 0.09 0.11 0.09 0.07 0.07 0.08 0.11 0.10 0.09 0.09 0.09 0.09 0.11 0.12 0.11 0.08 0.05 0.05 0.04 0.04 0.05 0.05 0.03 0.03 0.04 0.06
0.02 0.01 0.01 0.01 0.03 0.03 0.03 0.04 0.04 0.05 0.06 0.06 0.06 0.06 0.06 0.07 0.07 0.08 0.11 0.13 0.11 0.10 0.11 0.11 0.09 0.11 0.12 0.12 0.12 0.11 0.11 0.12 0.12 0.08 0.07 0.06 0.05 0.05 0.04 0.04 0.03 0.04 0.04
0.01 0.01 0.00 0.01 0.02 0.03 0.03 0.05 0.06 0.07 0.07 0.06 0.07 0.07 0.07 0.07 0.07 0.07 0.07 0.10 0.11 0.10 0.11 0.11 0.11 0.11 0.10 0.13 0.12 0.11 0.12 0.13 0.12 0.12 0.10 0.08 0.07 0.05 0.04 0.04 0.06 0.06 0.06
0.00 0.00 0.00 0.00 0.02 0.04 0.04 0.04 0.05 0.06 0.06 0.06 0.08 0.08 0.07 0.06 0.07 0.07 0.07 0.08 0.09 0.09 0.10 0.11 0.11 0.10 0.09 0.09 0.11 0.10 0.10 0.11 0.14 0.18 0.16 0.11 0.09 0.07 0.05 0.05 0.06 0.06 0.06
MSLP
1011.56 1011.59 1011.73 1011.96 1012.26 1012.57 1012.84 1013.06 1013.19 1013.23 1013.22 1013.17 1013.12 1013.08 1013.09 1013.13 1013.21 1013.30 1013.40 1013.48 1013.56 1013.62 1013.69 1013.77 1013.88 1014.03 1014.20 1014.39 1014.59 1014.77 1014.93 1015.06 1015.17 1015.26 1015.37 1015.50 1015.67 1015.88 1016.14 1016.42 1016.70 1016.97 1017.20
1011.54 1011.64 1011.86 1012.18 1012.55 1012.91 1013.22 1013.44 1013.55 1013.56 1013.49 1013.39 1013.31 1013.27 1013.30 1013.38 1013.52 1013.67 1013.81 1013.92 1014.01 1014.07 1014.13 1014.20 1014.31 1014.45 1014.63 1014.83 1015.02 1015.19 1015.33 1015.43 1015.50 1015.57 1015.66 1015.79 1015.97 1016.21 1016.48 1016.78 1017.06 1017.31 1017.51
1011.52 1011.71 1012.02 1012.42 1012.86 1013.28 1013.62 1013.84 1013.92 1013.89 1013.77 1013.63 1013.51 1013.46 1013.49 1013.61 1013.78 1013.96 1014.14 1014.28 1014.38 1014.45 1014.51 1014.58 1014.70 1014.85 1015.04 1015.25 1015.44 1015.59 1015.71 1015.77 1015.81 1015.86 1015.93 1016.07 1016.26 1016.51 1016.80 1017.10 1017.38 1017.62 1017.80
1011.51 1011.79 1012.18 1012.65 1013.15 1013.61 1013.96 1014.18 1014.24 1014.17 1014.01 1013.83 1013.69 1013.63 1013.66 1013.79 1013.97 1014.18 1014.38 1014.53 1014.65 1014.73 1014.81 1014.91 1015.05 1015.23 1015.43 1015.64 1015.82 1015.96 1016.04 1016.08 1016.09 1016.12 1016.19 1016.32 1016.53 1016.79 1017.09 1017.39 1017.66 1017.88 1018.05
1011.51 1011.85 1012.30 1012.81 1013.35 1013.83 1014.20 1014.41 1014.46 1014.37 1014.19 1013.98 1013.83 1013.75 1013.79 1013.91 1014.10 1014.32 1014.53 1014.70 1014.83 1014.95 1015.06 1015.20 1015.37 1015.57 1015.79 1016.00 1016.17 1016.28 1016.33 1016.33 1016.33 1016.34 1016.41 1016.55 1016.77 1017.04 1017.34 1017.64 1017.91 1018.12 1018.28
1011.53 1011.89 1012.36 1012.89 1013.43 1013.91 1014.28 1014.49 1014.53 1014.43 1014.25 1014.05 1013.89 1013.82 1013.85 1013.98 1014.17 1014.39 1014.60 1014.79 1014.95 1015.10 1015.26 1015.45 1015.66 1015.89 1016.12 1016.32 1016.47 1016.54 1016.56 1016.54 1016.51 1016.52 1016.60 1016.76 1016.99 1017.28 1017.58 1017.87 1018.13 1018.33 1018.49
1011.57 1011.92 1012.36 1012.88 1013.40 1013.86 1014.21 1014.41 1014.46 1014.37 1014.21 1014.03 1013.89 1013.84 1013.88 1014.01 1014.20 1014.42 1014.64 1014.85 1015.04 1015.24 1015.45 1015.68 1015.93 1016.19 1016.42 1016.61 1016.72 1016.75 1016.73 1016.68 1016.65 1016.67 1016.77 1016.95 1017.21 1017.51 1017.82 1018.10 1018.33 1018.52 1018.68
1011.65 1011.95 1012.35 1012.81 1013.29 1013.71 1014.04 1014.23 1014.28 1014.22 1014.09 1013.95 1013.85 1013.82 1013.89 1014.02 1014.22 1014.44 1014.67 1014.90 1015.13 1015.37 1015.63 1015.91 1016.20 1016.47 1016.70 1016.85 1016.92 1016.91 1016.85 1016.78 1016.75 1016.79 1016.92 1017.14 1017.43 1017.75 1018.06 1018.33 1018.54 1018.71 1018.84
1011.78 1012.03 1012.37 1012.77 1013.18 1013.56 1013.84 1014.02 1014.07 1014.04 1013.95 1013.86 1013.81 1013.82 1013.91 1014.06 1014.26 1014.49 1014.73 1014.97 1015.24 1015.52 1015.82 1016.14 1016.45 1016.73 1016.93 1017.05 1017.07 1017.01 1016.92 1016.84 1016.81 1016.89 1017.06 1017.33 1017.66 1018.01 1018.32 1018.57 1018.76 1018.88 1018.98
1011.98 1012.18 1012.47 1012.80 1013.15 1013.46 1013.71 1013.86 1013.91 1013.90 1013.86 1013.82 1013.82 1013.88 1013.99 1014.16 1014.36 1014.59 1014.83 1015.09 1015.37 1015.68 1016.01 1016.36 1016.68 1016.94 1017.12 1017.19 1017.17 1017.07 1016.95 1016.86 1016.85 1016.96 1017.18 1017.50 1017.88 1018.25 1018.57 1018.81 1018.96 1019.05 1019.10
1012.22 1012.41 1012.66 1012.95 1013.24 1013.49 1013.69 1013.81 1013.86 1013.86 1013.85 1013.86 1013.92 1014.02 1014.16 1014.34 1014.54 1014.75 1014.98 1015.23 1015.52 1015.84 1016.18 1016.53 1016.85 1017.10 1017.25 1017.28 1017.21 1017.08 1016.93 1016.83 1016.84 1016.98 1017.26 1017.63 1018.05 1018.45 1018.78 1019.01 1019.13 1019.18 1019.19
1012.48 1012.69 1012.93 1013.20 1013.44 1013.65 1013.80 1013.88 1013.92 1013.94 1013.96 1014.01 1014.11 1014.24 1014.41 1014.59 1014.78 1014.97 1015.17 1015.40 1015.67 1015.97 1016.31 1016.65 1016.96 1017.18 1017.30 1017.29 1017.19 1017.03 1016.86 1016.76 1016.78 1016.95 1017.26 1017.67 1018.12 1018.55 1018.89 1019.12 1019.23 1019.25 1019.22
1012.73 1012.98 1013.26 1013.52 1013.74 1013.90 1014.01 1014.06 1014.09 1014.11 1014.16 1014.25 1014.38 1014.54 1014.72 1014.90 1015.07 1015.22 1015.38 1015.57 1015.79 1016.06 1016.37 1016.69 1016.97 1017.17 1017.26 1017.23 1017.10 1016.92 1016.74 1016.64 1016.66 1016.84 1017.16 1017.59 1018.06 1018.50 1018.86 1019.09 1019.20 1019.22 1019.18
1012.92 1013.25 1013.56 1013.84 1014.05 1014.18 1014.26 1014.28 1014.30 1014.33 1014.40 1014.52 1014.68 1014.87 1015.05 1015.22 1015.36 1015.47 1015.58 1015.71 1015.87 1016.09 1016.36 1016.64 1016.89 1017.07 1017.14 1017.10 1016.96 1016.76 1016.57 1016.45 1016.46 1016.63 1016.94 1017.36 1017.82 1018.27 1018.63 1018.88 1019.01 1019.04 1019.02
1013.04 1013.44 1013.81 1014.10 1014.31 1014.43 1014.48 1014.49 1014.50 1014.53 1014.63 1014.77 1014.96 1015.17 1015.36 1015.52 1015.62 1015.69 1015.73 1015.80 1015.90 1016.06 1016.27 1016.51 1016.73 1016.89 1016.96 1016.91 1016.77 1016.56 1016.37 1016.23 1016.21 1016.34 1016.61 1016.98 1017.41 1017.84 1018.20 1018.46 1018.62 1018.69 1018.71
1013.09 1013.55 1013.95 1014.26 1014.47 1014.58 1014.62 1014.63 1014.64 1014.69 1014.80 1014.97 1015.19 1015.41 1015.60 1015.74 1015.82 1015.84 1015.83 1015.84 1015.88 1015.98 1016.14 1016.33 1016.53 1016.67 1016.73 1016.69 1016.55 1016.35 1016.14 1015.98 1015.91 1015.98 1016.18 1016.48 1016.85 1017.23 1017.57 1017.84 1018.03 1018.15 1018.23
1013.09 1013.59 1014.01 1014.33 1014.54 1014.65 1014.68 1014.69 1014.71 1014.78 1014.91 1015.10 1015.33 1015.56 1015.75 1015.88 1015.93 1015.92 1015.88 1015.83 1015.82 1015.88 1015.99 1016.15 1016.32 1016.46 1016.52 1016.49 1016.36 1016.16 1015.94 1015.74 1015.61 1015.60 1015.70 1015.91 1016.19 1016.50 1016.80 1017.06 1017.28 1017.44 1017.58
1013.11 1013.61 1014.03 1014.34 1014.54 1014.65 1014.69 1014.71 1014.74 1014.82 1014.97 1015.17 1015.40 1015.62 1015.81 1015.92 1015.96 1015.94 1015.87 1015.81 1015.77 1015.79 1015.88 1016.01 1016.16 1016.28 1016.34 1016.32 1016.20 1016.01 1015.77 1015.54 1015.35 1015.25 1015.25 1015.34 1015.51 1015.72 1015.96 1016.20 1016.42 1016.62 1016.81
1013.18 1013.66 1014.05 1014.35 1014.54 1014.65 1014.70 1014.73 1014.78 1014.87 1015.02 1015.21 1015.42 1015.63 1015.79 1015.90 1015.93 1015.91 1015.84 1015.77 1015.74 1015.75 1015.82 1015.93 1016.06 1016.18 1016.24 1016.21 1016.10 1015.91 1015.67 1015.40 1015.16 1014.97 1014.86 1014.83 1014.88 1014.99 1015.15 1015.33 1015.54 1015.76 1015.98
1013.34 1013.77 1014.13 1014.40 1014.58 1014.69 1014.75 1014.80 1014.87 1014.96 1015.09 1015.26 1015.44 1015.61 1015.74 1015.83 1015.86 1015.84 1015.80 1015.76 1015.74 1015.76 1015.83 1015.93 1016.05 1016.14 1016.19 1016.17 1016.06 1015.88 1015.63 1015.34 1015.05 1014.79 1014.58 1014.44 1014.37 1014.37 1014.44 1014.56 1014.73 1014.93 1015.17
1013.58 1013.96 1014.27 1014.52 1014.69 1014.81 1014.89 1014.96 1015.03 1015.12 1015.22 1015.35 1015.47 1015.58 1015.67 1015.73 1015.76 1015.76 1015.75 1015.75 1015.77 1015.81 1015.89 1015.98 1016.08 1016.16 1016.19 1016.16 1016.05 1015.87 1015.62 1015.33 1015.02 1014.70 1014.42 1014.19 1014.01 1013.92 1013.89 1013.94 1014.06 1014.24 1014.47
1013.89 1014.21 1014.48 1014.69 1014.86 1014.99 1015.10 1015.19 1015.28 1015.35 1015.42 1015.48 1015.53 1015.57 1015.61 1015.63 1015.65 1015.67 1015.69 1015.74 1015.79 1015.87 1015.96 1016.05 1016.13 1016.18 1016.19 1016.14 1016.03 1015.86 1015.63 1015.34 1015.03 1014.69 1014.37 1014.07 1013.82 1013.64 1013.53 1013.52 1013.58 1013.73 1013.93
1014.20 1014.47 1014.69 1014.88 1015.05 1015.21 1015.35 1015.47 1015.56 1015.62 1015.65 1015.64 1015.61 1015.58 1015.54 1015.52 1015.52 1015.55 1015.61 1015.69 1015.79 1015.89 1015.98 1016.06 1016.11 1016.13 1016.11 1016.05 1015.94 1015.79 1015.58 1015.33 1015.04 1014.72 1014.38 1014.06 1013.77 1013.53 1013.37 1013.29 1013.32 1013.43 1013.61
1014.47 1014.68 1014.86 1015.04 1015.21 1015.39 1015.57 1015.72 1015.83 1015.88 1015.87 1015.81 1015.70 1015.58 1015.47 1015.40 1015.37 1015.40 1015.47 1015.58 1015.70 1015.81 1015.91 1015.97 1015.99 1015.97 1015.93 1015.85 1015.74 1015.61 1015.45 1015.24 1015.00 1014.72 1014.41 1014.09 1013.79 1013.53 1013.34 1013.24 1013.24 1013.33 1013.49
1014.65 1014.81 1014.96 1015.11 1015.29 1015.50 1015.71 1015.89 1016.02 1016.08 1016.05 1015.93 1015.77 1015.57 1015.40 1015.27 1015.20 1015.21 1015.28 1015.39 1015.51 1015.62 1015.70 1015.73 1015.71 1015.66 1015.59 1015.50 1015.41 1015.31 1015.19 1015.05 1014.88 1014.66 1014.40 1014.12 1013.84 1013.59 1013.41 1013.30 1013.29 1013.39 1013.56
1014.72 1014.84 1014.95 1015.09 1015.27 1015.49 1015.73 1015.96 1016.11 1016.18 1016.14 1016.00 1015.79 1015.54 1015.31 1015.12 1015.01 1014.99 1015.03 1015.12 1015.23 1015.31 1015.35 1015.34 1015.29 1015.20 1015.10 1015.01 1014.93 1014.87 1014.81 1014.75 1014.65 1014.50 1014.32 1014.09 1013.86 1013.65 1013.49 1013.41 1013.43 1013.54 1013.73
Thickness
5774 5773 5765 5765 5765 5765 5765 5764 5764 5764 5764 5763 5763 5764 5764 5764 5763 5763 5763 5762 5761 5761 5760 5759 5758 5758 5757 5756 5756 5755 5754 5754 5753 5753 5752 5751 5750 5749 5749 5748 5748 5747 5744
5777 5772 5764 5764 5763 5763 5763 5762 5762 5762 5762 5761 5761 5762 5762 5762 5762 5762 5761 5760 5759 5758 5758 5757 5756 5756 5755 5754 5754 5753 5752 5752 5751 5751 5750 5749 5748 5748 5747 5747 5747 5746 5743
5777 5772 5766 5763 5762 5761 5760 5760 5760 5760 5760 5760 5760 5760 5760 5760 5761 5760 5759 5758 5757 5757 5756 5755 5754 5753 5753 5752 5752 5751 5750 5750 5750 5750 5750 5751 5748 5746 5746 5745 5744 5742 5741
5777 5774 5767 5761 5761 5760 5759 5759 5758 5758 5758 5758 5758 5758 5758 5758 5758 5758 5757 5756 5755 5755 5754 5753 5752 5751 5750 5751 5750 5750 5749 5749 5749 5750 5753 5752 5750 5745 5745 5744 5742 5741 5739
5776 5772 5764 5761 5760 5759 5757 5757 5756 5756 5756 5756 5756 5756 5756 5756 5755 5755 5754 5754 5753 5753 5753 5751 5750 5749 5749 5749 5748 5748 5748 5748 5749 5751 5752 5751 5749 5745 5743 5742 5741 5739 5738
5776 5773 5764 5760 5759 5757 5756 5755 5755 5755 5755 5755 5754 5754 5754 5754 5753 5753 5753 5752 5751 5751 5750 5750 5749 5748 5748 5748 5747 5747 5747 5747 5749 5752 5751 5750 5747 5743 5742 5740 5739 5738 5737
5776 5773 5766 5759 5758 5756 5755 5754 5754 5754 5753 5753 5753 5753 5753 5752 5752 5752 5751 5750 5749 5749 5748 5748 5747 5747 5746 5746 5746 5746 5746 5747 5751 5750 5749 5748 5745 5742 5740 5739 5738 5737 5736
5776 5773 5765 5758 5757 5756 5754 5753 5753 5753 5752 5752 5751 5751 5751 5751 5751 5750 5749 5749 5748 5747 5746 5746 5745 5745 5745 5745 5745 5744 5744 5746 5749 5750 5749 5747 5742 5740 5739 5738 5737 5736 5735
5775 5773 5769 5765 5759 5756 5754 5752 5752 5751 5751 5751 5750 5750 5750 5750 5750 5749 5748 5747 5746 5746 5745 5745 5744 5744 5744 5744 5744 5743 5744 5745 5750 5749 5748 5745 5741 5739 5738 5737 5736 5735 5735
5772 5772 5768 5767 5764 5762 5757 5753 5751 5751 5750 5750 5750 5749 5749 5749 5749 5749 5748 5746 5746 5745 5745 5745 5744 5743 5743 5743 5743 5743 5743 5745 5750 5749 5748 5744 5740 5738 5737 5736 5736 5735 5734
5768 5769 5769 5768 5764 5762 5760 5755 5753 5751 5750 5750 5750 5749 5750 5752 5751 5750 5747 5746 5745 5745 5744 5744 5744 5744 5744 5744 5743 5744 5745 5749 5750 5750 5747 5743 5740 5738 5737 5736 5735 5734 5734
5766 5767 5767 5766 5765 5763 5761 5757 5755 5755 5752 5753 5752 5752 5752 5751 5751 5750 5746 5746 5745 5745 5744 5744 5744 5745 5747 5748 5746 5746 5749 5750 5751 5750 5747 5742 5740 5738 5737 5736 5735 5734 5733
5769 5767 5766 5765 5763 5762 5760 5759 5757 5756 5753 5753 5752 5752 5752 5752 5752 5751 5750 5748 5747 5747 5748 5746 5747 5749 5750 5749 5749 5750 5750 5752 5751 5751 5747 5743 5740 5739 5738 5736 5735 5734 5733
5769 5767 5766 5764 5761 5759 5760 5759 5757 5757 5756 5755 5752 5753 5753 5753 5753 5752 5751 5750 5750 5749 5749 5750 5749 5749 5749 5750 5750 5750 5751 5752 5752 5751 5747 5743 5741 5739 5738 5737 5736 5735 5734
5769 5767 5766 5763 5760 5759 5757 5758 5759 5757 5757 5755 5753 5752 5752 5753 5752 5752 5750 5750 5752 5752 5751 5750 5751 5750 5750 5751 5751 5751 5752 5751 5752 5751 5748 5744 5742 5741 5739 5738 5737 5736 5735
5770 5768 5767 5764 5762 5760 5758 5757 5757 5758 5755 5756 5755 5753 5752 5752 5751 5751 5750 5750 5752 5752 5752 5752 5752 5752 5752 5752 5752 5752 5752 5753 5751 5750 5750 5746 5744 5742 5740 5739 5738 5737 5735
5772 5770 5767 5766 5764 5761 5760 5759 5759 5758 5757 5756 5754 5753 5752 5752 5750 5750 5751 5752 5752 5752 5751 5752 5753 5753 5753 5753 5753 5753 5753 5753 5753 5751 5750 5750 5748 5744 5742 5741 5739 5738 5736
5775 5771 5769 5770 5766 5762 5760 5759 5760 5759 5757 5756 5755 5754 5753 5752 5751 5750 5752 5753 5752 5752 5753 5753 5754 5753 5753 5753 5753 5754 5754 5753 5752 5751 5751 5750 5750 5749 5745 5742 5740 5739 5737
5777 5773 5770 5769 5766 5764 5762 5760 5760 5758 5757 5757 5756 5755 5754 5753 5752 5752 5752 5752 5752 5753 5754 5755 5754 5753 5751 5751 5753 5753 5754 5754 5753 5753 5752 5752 5750 5749 5747 5744 5742 5740 5738
5780 5776 5773 5770 5767 5765 5763 5760 5760 5759 5759 5759 5758 5756 5754 5754 5753 5753 5753 5752 5753 5753 5752 5752 5750 5750 5751 5751 5754 5754 5754 5755 5754 5754 5753 5753 5751 5750 5749 5747 5745 5742 5740
5781 5777 5774 5771 5768 5766 5763 5761 5759 5759 5759 5759 5759 5757 5755 5754 5753 5752 5754 5752 5752 5752 5751 5751 5750 5749 5749 5751 5750 5750 5752 5755 5755 5753 5753 5753 5753 5751 5749 5747 5746 5745 5742
5782 5779 5776 5773 5770 5768 5765 5763 5761 5760 5760 5760 5760 5757 5756 5755 5753 5754 5752 5753 5752 5751 5750 5749 5748 5748 5749 5750 5747 5745 5744 5747 5749 5753 5752 5750 5750 5750 5749 5748 5746 5743 5742
5784 5781 5779 5775 5772 5769 5767 5765 5762 5760 5759 5759 5757 5757 5756 5754 5753 5753 5752 5752 5751 5751 5750 5749 5748 5746 5745 5748 5749 5744 5740 5739 5744 5747 5748 5748 5747 5746 5746 5745 5743 5742 5740
5788 5785 5780 5776 5772 5769 5767 5765 5762 5759 5756 5756 5756 5757 5756 5754 5754 5753 5753 5752 5751 5752 5750 5749 5750 5748 5745 5744 5746 5746 5746 5744 5739 5738 5742 5745 5744 5742 5742 5742 5742 5739 5737
5792 5788 5782 5777 5773 5770 5768 5765 5762 5760 5759 5758 5757 5756 5755 5755 5754 5753 5752 5752 5750 5751 5750 5749 5748 5747 5746 5743 5743 5743 5742 5741 5741 5736 5733 5736 5738 5739 5739 5738 5737 5735 5734
5795 5790 5784 5778 5774 5771 5768 5766 5762 5760 5758 5756 5754 5753 5754 5755 5754 5753 5752 5751 5750 5750 5749 5748 5747 5746 5744 5743 5742 5742 5740 5739 5737 5736 5732 5731 5731 5734 5735 5733 5732 5731 5730